Regional Weather Roundup
Issued by NWS

Home | Current Version | Previous Version | Graphics & Text | Print | Product List | Glossary On
Versions: 1 2 3 4 5 6 7 8 9 10 11 12 13 14 15 16 17 18 19 20 21 22 23 24 25 26 27 28 29 30 31 32 33 34 35 36 37 38 39 40 41 42 43 44 45 46 47 48 49 50
000
ASUS43 KLSX 181857
RWRMO

WEATHER SUMMARY FOR MISSOURI
NATIONAL WEATHER SERVICE SPRINGFIELD MO
200 PM CDT WED OCT 18 2017

NOTE: "FAIR" INDICATES FEW OR NO CLOUDS BELOW 12,000 FEET WITH NO
       SIGNIFICANT WEATHER AND/OR OBSTRUCTIONS TO VISIBILITY.
       CURRENT SKY AND/OR WEATHER CONDITIONS ARE NOT AVAILABLE FOR
       CHILLICOTHE AND FARMINGTON.

MOZ001>031-035>038-043-044-053-054-182000-
...NORTHERN AND WESTERN MISSOURI...

CITY           SKY/WX    TMP DP  RH WIND       PRES   REMARKS
KANSAS CTY INT MOSUNNY   71  48  43 S14G23    30.00F
LEE`S SUMMIT   SUNNY     73  48  41 S16G22    30.03F
ST JOSEPH      SUNNY     73  48  41 S13G22    29.97F
CHILLICOTHE      N/A     72  49  44 S13G22    30.01F

$$
MOZ066>068-077>081-088>096-101>105-182000-
...SOUTHWEST MISSOURI...

CITY           SKY/WX    TMP DP  RH WIND       PRES   REMARKS
SPRINGFIELD    SUNNY     74  45  35 S14G22    30.10F
JOPLIN         SUNNY     74  48  39 S20       30.07F
BRANSON        SUNNY     77  36  22 S7        30.14F

$$
MOZ032>034-039>042-045>050-055>058-069>072-182000-
...CENTRAL MISSOURI...

CITY           SKY/WX    TMP DP  RH WIND       PRES   REMARKS
COLUMBIA       NOT AVBL
JEFFERSON CITY SUNNY     71  43  36 S9        30.08F
ROLLA          SUNNY     73  41  31 S15       30.12F
SEDALIA        SUNNY     73  49  42 S17       30.07F
WARRENSBURG    SUNNY     72  45  37 S13G18    30.05S

$$
MOZ051-052-059>065-182000-
...EAST CENTRAL MISSOURI...

CITY           SKY/WX    TMP DP  RH WIND       PRES   REMARKS
ST LOUIS INTL  MOSUNNY   71  46  40 S9        30.13F

$$
MOZ072>076-082>087-097>100-106>115-182000-
...SOUTH CENTRAL AND SOUTHEAST MISSOURI...

CITY           SKY/WX    TMP DP  RH WIND       PRES   REMARKS
CAPE GIRARDEAU SUNNY     72  46  39 S13       30.18F
POPLAR BLUFF   SUNNY     73  49  42 S8        30.18F
WEST PLAINS    SUNNY     73  41  31 S7        30.16F

$$



USA.gov is the U.S. government's official web portal to all federal, state and local government web resources and services.